Location: Desert Center
(33.7130°N, 115.4010°W)
Time: 06:33:37
(UTC-07:00)

Daily predictions for brighter satellites

Satellite Brightness Start Highest point End
(mag) Time Altitude Azimuth Time Altitude Azimuth Time Altitude Azimuth
Atlas Centaur 2 3.8 18:42:43 10° W 18:50:48 50° SSW 18:58:46 10° SE
Cosmos 1371 Rocket 4.5 18:46:46 10° NNW 18:52:04 71° WSW 18:57:22 10° S
CZ-2C R/B 3.6 18:49:06 10° S 18:53:54 48° W 18:58:34 10° NNW
FREGAT/IRIS 4.0 18:52:03 10° ESE 18:54:26 21° ENE 18:56:49 10° NNE
Abrixas 2.9 18:51:36 10° WSW 18:54:34 63° NW 18:57:33 10° NE
Meteor 1-28 Rocket 3.4 18:56:16 10° NNE 18:59:51 48° E 19:03:27 10° S
COSMO-SKYMED 1 3.1 18:55:51 10° N 19:00:09 66° WNW 19:04:27 10° SSW
Milstar 3 4.3 18:53:40 10° W 19:02:34 68° S 19:18:56 12° ESE
Helios 1B rocket 3.3 18:59:06 10° NE 19:02:39 28° E 19:06:11 10° SSE
USA 215 3.4 18:58:07 10° NE 19:04:31 55° SE 19:10:52 10° SSW
Cosmos 1805 3.6 19:01:24 10° SSE 19:05:08 44° E 19:08:53 10° NNE
GPS 2-04 Rocket1 2.3 19:04:46 10° WSW 19:08:11 77° SSE 19:11:14 13° E
Cosmos 2278 Rocket 4.1 19:04:03 10° NW 19:09:05 34° WSW 19:14:06 10° SSW
IDEFIX/ARIANE 42P 4.2 19:04:33 10° SSW 19:09:24 39° W 19:14:18 10° NNW
Cosmos 1953 2.3 19:09:07 10° S 19:13:02 58° E 19:16:56 10° NNE
SeaSat 1 4.3 19:14:24 11° ESE 19:14:24 11° ESE 19:15:19 10° SE
SAR-Lupe-1 3.9 19:12:59 10° SSE 19:16:31 70° ENE 19:20:03 10° N
Gbstr 26 Del rocket 3.2 19:13:09 10° SSW 19:17:12 54° SE 19:22:05 10° NE
Meteor 1-29 3.7 19:14:40 10° NE 19:17:49 31° E 19:20:55 10° SSE
Cosmos 1076 Rocket 3.4 19:13:29 10° N 19:17:49 74° E 19:22:10 10° S
Cosmos 2297 4.2 19:12:18 10° NNW 19:17:54 64° WSW 19:23:25 10° S
Cosmos 1766 Rocket 3.5 19:13:51 10° N 19:18:09 59° E 19:22:24 10° SSE
ATLAS CENTAUR R/B 3.8 19:17:08 10° WNW 19:20:19 23° WSW 19:23:19 10° SSW
NOAA 12 4.0 19:15:48 10° SSE 19:21:00 70° ENE 19:26:16 10° N
Cosmos-2242 3.0 19:18:04 10° S 19:22:22 68° E 19:26:45 10° NNE
Cosmos 1943 3.8 19:18:04 10° SSE 19:23:04 34° ESE 19:28:04 10° NE
Cosmos 2369 Rocket 3.6 19:21:39 10° NNE 19:25:35 19° ENE 19:27:10 17° ENE
Cosmos 1733 4.3 19:24:21 10° SE 19:27:29 24° E 19:30:37 10° NE
Cosmos 1603 3.8 19:23:30 10° SSW 19:29:13 83° WNW 19:35:01 10° NNE
Cosmos 1470 3.4 19:26:17 10° SSE 19:29:44 31° E 19:33:11 10° NNE
ATLAS CENTAUR R/B 4.2 19:26:55 10° WSW 19:31:30 51° NW 19:45:11 10° NE
OAO 3 Rocket 3.1 19:27:32 10° W 19:32:17 79° N 19:35:09 24° E
SEDSat Delta rocket 4.1 19:26:47 10° W 19:33:19 72° S 19:37:58 22° ESE
BREEZE-M DEB (TANK) 3.3 19:32:07 10° WNW 19:34:35 42° SW 19:40:41 10° SE
Delta 168 4.4 19:32:04 10° WSW 19:36:00 33° S 19:39:11 20° SE
Cosmos 1452 Rocket 3.5 19:33:09 10° NNW 19:38:26 88° WSW 19:43:40 10° SSE
Spot 1 4.1 19:34:28 10° SSE 19:39:14 78° ENE 19:43:44 10° N
Cosmos 1674 3.3 19:37:27 10° NNE 19:40:59 33° E 19:41:20 32° E
SJ-6B 3.6 19:38:02 10° S 19:41:54 54° W 19:45:53 10° NNW
ASTRO E2 3.4 19:42:00 10° W 19:45:52 45° SSW 19:47:22 30° SE
ASTEX 1 3.6 19:41:22 10° NNE 19:46:05 47° E 19:50:46 10° SSE
Cosmos 2034 Rocket 4.4 19:40:01 10° SSW 19:46:13 68° W 19:52:32 10° N
In-Cosmos 22 4.5 19:40:54 10° NNW 19:46:40 73° W 19:52:20 10° S
Cosmos 1842 Rocket 3.5 19:42:46 10° S 19:47:00 58° E 19:51:16 10° NNE
Cosmos 1408 Rocket 4.4 19:45:37 10° NNW 19:49:48 50° W 19:53:57 10° SSW
Cosmos 1500 Rocket 3.8 19:46:28 10° N 19:50:44 45° E 19:52:00 35° SE
ISS -1.3 19:55:34 10° W 19:58:21 26° NW 20:00:06 17° N
Cosmos 1420 Rocket 3.9 19:53:11 10° NNW 19:58:30 77° ENE 20:02:05 21° SSE
ATLAS 5 CENTAUR R/B 4.4 19:56:44 10° W 20:00:14 20° NW 20:03:56 10° N
BREEZE-M TANK 3.8 19:54:45 10° WNW 20:00:58 38° SW 20:02:34 23° S
ALOS 2.2 19:59:05 33° SE 20:01:00 61° ENE 20:05:36 10° N
Helios 1A 3.1 19:57:19 10° S 20:01:31 76° WSW 20:05:44 10° NNW
FengYun 1-2 T 4.1 19:56:42 10° SSE 20:02:13 85° ENE 20:07:44 10° NNW
CENTAUR R/B 2.4 19:57:48 10° SSW 20:03:42 87° WNW 20:10:20 10° NNE
Spot 2 Rocket 4.0 20:03:46 10° S 20:08:43 60° WSW 20:13:42 10° NNW
Resurs 1-3 3.9 20:08:50 14° S 20:12:36 66° W 20:16:58 10° NNW
Resurs 01 Rocket 2.8 20:14:24 10° S 20:18:37 41° W 20:22:50 10° NNW
Cosmos 1743 Rocket 4.4 20:15:38 10° NNW 20:19:55 51° W 20:23:54 12° SSW
Cosmos 1627 Rocket 4.5 20:15:56 10° N 20:22:02 56° E 20:22:29 54° E
CZ-2D R/B 4.2 20:26:23 41° NNW 20:26:23 41° NNW 20:29:00 10° NNW
Meteosat 1 Rocket2 4.0 20:18:40 10° WSW 20:25:06 46° S 20:25:14 46° S
Cosmos 158 Rocket 4.4 20:26:22 10° SSW 20:31:09 55° WNW 20:35:57 10° N
FENGYUN 3A 4.0 20:32:55 29° S 20:35:39 63° WSW 20:41:01 10° NNW
H-2A R/B 4.3 20:38:39 33° NW 20:38:39 33° NW 20:40:59 10° NNW
GP-B 4.4 20:42:54 10° N 20:45:35 34° NNW 20:45:35 34° NNW
USA 215 4.4 20:41:22 10° NNE 20:47:18 38° NW 20:53:12 10° WSW
SeaSat 1 4.2 20:54:19 23° SW 20:54:19 23° SW 20:56:11 10° SW
Cosmos 2279 Rocket 4.4 20:54:12 49° N 20:54:12 49° N 20:58:36 10° N
Cosmos 1943 Rocket 3.7 21:00:14 10° NNW 21:02:42 26° N 21:02:42 26° N
Cosmos 2369 Rocket 3.0 21:04:23 10° NNW 21:08:59 48° WNW 21:08:59 48° WNW
Cosmos 1655 Rocket 4.5 21:05:36 10° N 21:10:29 55° NW 21:10:29 55° NW
